{"data":{"norad_id":47836,"epoch":"2026-09-20T01:53:23.307072Z","epoch_age_seconds":65545,"freshness":"FRESH","line1":"1 47836U 21018BB  26263.07874198 -.00000893  00000+0 -17031-4 0  9990","line2":"2 47836  53.1596  60.3492 0000835 116.6036 243.5051 15.31704397306483","mean_motion":15.31704397,"eccentricity":8.35e-5,"inclination_deg":53.1596,"raan_deg":60.3492,"arg_perigee_deg":116.6036,"mean_anomaly_deg":243.5051,"bstar":-1.7031e-5,"rev_number":30648,"period_min":94.012918081347,"perigee_km":470.15500789415,"apogee_km":471.29876816345,"semimajor_km":6848.8638880288,"source":"CELESTRAK","updated_at":"2026-09-20T09:00:38.752499Z"}}